N0MR Weather Reports


time (UTC)temp
C
wind
direction
speed
KPH
gust
KPH
rain 1hr
cm
rain 24hr
cm
rain mn
cm
humidity
%
barometer
mb
20260506233133 3 33 0.0 11.3 0.00 0.00 0.00 58 1014.0
20260506232134 3 340 6.4 11.3 0.00 0.00 0.00 57 1013.9
20260506231134 3 340 6.4 11.3 0.00 0.00 0.00 57 1013.9
20260506224133 4 268 1.6 9.7 0.00 0.00 0.00 55 1013.7
20260506223135 4 268 1.6 9.7 0.00 0.00 0.00 55 1013.7
20260506222134 4 317 1.6 17.7 0.00 0.00 0.00 54 1013.7
20260506221135 4 317 1.6 17.7 0.00 0.00 0.00 54 1013.7
20260506220134 4 329 1.6 14.5 0.00 0.00 0.00 56 1013.8
20260506214135 4 221 4.8 14.5 0.00 0.00 0.00 55 1013.7
20260506213135 4 221 4.8 14.5 0.00 0.00 0.00 55 1013.7
20260506212134 4 351 3.2 12.9 0.00 0.00 0.00 56 1013.9
20260506211135 4 351 3.2 12.9 0.00 0.00 0.00 56 1013.9
20260506210134 4 323 8.0 14.5 0.00 0.00 0.00 54 1014.0
20260506205134 4 323 8.0 14.5 0.00 0.00 0.00 54 1014.0
20260506204135 4 319 9.7 14.5 0.00 0.00 0.00 54 1013.9
20260506203134 4 319 9.7 14.5 0.00 0.00 0.00 54 1013.9
20260506202134 4 246 4.8 17.7 0.00 0.00 0.00 54 1014.0
20260506201135 3 222 8.0 11.3 0.00 0.00 0.00 56 1014.1
20260506200135 3 222 8.0 11.3 0.00 0.00 0.00 56 1014.1
20260506195134 4 298 6.4 12.9 0.00 0.00 0.00 52 1014.2
20260506194134 4 298 6.4 12.9 0.00 0.00 0.00 52 1014.2
20260506193135 3 39 3.2 11.3 0.00 0.00 0.00 56 1014.1
20260506192135 3 39 3.2 11.3 0.00 0.00 0.00 56 1014.1
20260506191136 3 336 6.4 12.9 0.00 0.00 0.00 55 1014.2
20260506190136 3 336 6.4 12.9 0.00 0.00 0.00 55 1014.2
20260506185135 3 312 1.6 16.1 0.00 0.00 0.00 59 1014.3
20260506184136 3 312 1.6 16.1 0.00 0.00 0.00 59 1014.3
20260506183135 3 109 8.0 16.1 0.00 0.00 0.00 59 1014.3
20260506182135 3 109 8.0 16.1 0.00 0.00 0.00 59 1014.3
20260506181136 2 355 8.0 19.3 0.00 0.00 0.00 61 1014.3
20260506180136 2 355 8.0 19.3 0.00 0.00 0.00 61 1014.3
20260506174135 2 31 8.0 17.7 0.00 0.00 0.00 63 1014.5
20260506172136 2 355 1.6 12.9 0.00 0.00 0.00 63 1014.5
20260506171135 2 300 3.2 16.1 0.00 0.00 0.00 61 1014.6
20260506170136 2 243 3.2 12.9 0.00 0.00 0.00 60 1014.6
20260506165136 2 243 3.2 12.9 0.00 0.00 0.00 60 1014.6
20260506164136 2 322 1.6 14.5 0.00 0.00 0.00 59 1014.4
20260506163136 2 322 1.6 14.5 0.00 0.00 0.00 59 1014.4
20260506162135 2 298 8.0 12.9 0.00 0.00 0.00 59 1014.5
20260506161136 2 298 8.0 12.9 0.00 0.00 0.00 59 1014.5
20260506160136 2 189 4.8 12.9 0.00 0.00 0.00 61 1014.5
20260506155135 2 189 4.8 12.9 0.00 0.00 0.00 61 1014.5
20260506154135 2 277 1.6 12.9 0.00 0.00 0.00 60 1014.4
20260506153137 2 277 1.6 12.9 0.00 0.00 0.00 60 1014.4
20260506152137 1 355 3.2 14.5 0.00 0.00 0.00 63 1014.6
20260506151137 1 355 3.2 14.5 0.00 0.00 0.00 63 1014.6
20260506150137 1 348 3.2 12.9 0.00 0.00 0.00 64 1014.6
20260506145137 1 348 3.2 12.9 0.00 0.00 0.00 64 1014.6
20260506144136 1 350 4.8 12.9 0.00 0.00 0.00 66 1014.7
20260506143136 1 350 4.8 12.9 0.00 0.00 0.00 66 1014.7
20260506142140 1 236 3.2 11.3 0.00 0.00 0.00 68 1014.5
20260506141137 1 236 3.2 11.3 0.00 0.00 0.00 68 1014.5
20260506140137 0 280 3.2 12.9 0.00 0.00 0.00 70 1014.5
20260506135137 0 333 1.6 12.9 0.00 0.00 0.00 71 1014.5
20260506134137 0 333 1.6 12.9 0.00 0.00 0.00 71 1014.5
20260506133136 0 315 6.4 16.1 0.00 0.00 0.00 72 1014.5
20260506132137 0 315 6.4 16.1 0.00 0.00 0.00 72 1014.5
20260506131137 0 342 6.4 14.5 0.00 0.00 0.00 73 1014.5
20260506130138 0 342 6.4 14.5 0.00 0.00 0.00 73 1014.5
20260506125138 0 311 3.2 11.3 0.00 0.00 0.00 73 1014.3
20260506124137 0 311 3.2 11.3 0.00 0.00 0.00 73 1014.3
20260506123138 0 290 1.6 9.7 0.00 0.00 0.00 75 1014.0
20260506122138 0 290 1.6 9.7 0.00 0.00 0.00 75 1014.0
20260506121138 -1 317 3.2 9.7 0.00 0.00 0.00 75 1013.8
20260506120138 -1 317 3.2 9.7 0.00 0.00 0.00 75 1013.8
20260506115138 -1 295 1.6 9.7 0.00 0.00 0.00 76 1013.6
20260506114138 -1 295 1.6 9.7 0.00 0.00 0.00 76 1013.6
20260506113138 -1 5 3.2 11.3 0.00 0.00 0.00 76 1013.5
20260506112137 -1 5 3.2 11.3 0.00 0.00 0.00 76 1013.5
20260506111138 -1 333 8.0 11.3 0.00 0.00 0.00 76 1013.4
20260506110138 -1 333 8.0 11.3 0.00 0.00 0.00 76 1013.4
20260506105139 -1 315 1.6 11.3 0.00 0.00 0.00 75 1013.4
20260506104138 -1 310 1.6 8.0 0.00 0.00 0.00 75 1013.4
20260506103138 -1 310 1.6 8.0 0.00 0.00 0.00 75 1013.4
20260506102139 -1 297 3.2 9.7 0.00 0.00 0.00 75 1013.5
20260506101137 -1 297 3.2 9.7 0.00 0.00 0.00 75 1013.5
20260506100138 -1 265 1.6 8.0 0.00 0.00 0.00 75 1013.4
20260506094137 -1 329 1.6 11.3 0.00 0.00 0.00 74 1013.4
20260506093138 -1 329 1.6 11.3 0.00 0.00 0.00 74 1013.4
20260506092139 -1 275 1.6 11.3 0.00 0.00 0.00 73 1013.4
20260506091138 -1 275 1.6 11.3 0.00 0.00 0.00 73 1013.4
20260506090139 -1 292 1.6 11.3 0.00 0.00 0.00 73 1013.4
20260506085138 -1 292 1.6 11.3 0.00 0.00 0.00 73 1013.4
20260506084139 -1 296 1.6 9.7 0.00 0.00 0.00 73 1013.4
20260506083139 -1 296 1.6 9.7 0.00 0.00 0.00 73 1013.4
20260506082138 0 327 6.4 8.0 0.00 0.00 0.00 72 1013.4
20260506081139 0 327 6.4 8.0 0.00 0.00 0.00 72 1013.4
20260506080139 0 321 1.6 12.9 0.00 0.00 0.00 72 1013.3
20260506073138 0 297 1.6 12.9 0.00 0.00 0.00 70 1013.2
20260506072138 0 297 1.6 12.9 0.00 0.00 0.00 70 1013.2
20260506071139 0 340 6.4 11.3 0.00 0.00 0.00 68 1013.3
20260506070156 0 340 6.4 11.3 0.00 0.00 0.00 68 1013.3
20260506062140 0 283 1.6 11.3 0.00 0.00 0.00 66 1013.0
20260506061139 0 342 1.6 11.3 0.00 0.00 0.00 65 1013.1
20260506060141 0 342 1.6 11.3 0.00 0.00 0.00 65 1013.1
20260506051140 0 127 3.2 20.9 0.00 0.00 0.00 65 1012.9
20260506050141 0 127 3.2 20.9 0.00 0.00 0.00 65 1012.9
20260506044140 0 295 1.6 11.3 0.00 0.00 0.00 64 1013.0
20260506043141 0 265 1.6 12.9 0.00 0.00 0.00 65 1013.0
20260506042141 0 298 1.6 11.3 0.00 0.00 0.00 65 1012.9
20260506041141 0 298 1.6 11.3 0.00 0.00 0.00 65 1012.9
20260506034141 0 313 6.4 11.3 0.00 0.00 0.00 64 1012.7
20260506033140 0 313 6.4 11.3 0.00 0.00 0.00 64 1012.7
20260506032141 1 314 9.7 14.5 0.00 0.00 0.00 63 1012.6
20260506031141 1 314 9.7 14.5 0.00 0.00 0.00 63 1012.6
20260506030140 1 273 1.6 14.5 0.00 0.00 0.00 63 1012.6
20260506025141 1 273 1.6 14.5 0.00 0.00 0.00 63 1012.6
20260506024140 1 293 3.2 12.9 0.00 0.00 0.00 63 1012.4
20260506023141 1 293 3.2 12.9 0.00 0.00 0.00 63 1012.4
20260506022140 1 288 6.4 9.7 0.00 0.00 0.00 62 1012.3
20260506021142 1 288 6.4 9.7 0.00 0.00 0.00 62 1012.3
20260506020142 1 306 0.0 9.7 0.00 0.00 0.00 62 1012.0
20260506015142 1 306 0.0 9.7 0.00 0.00 0.00 62 1012.0
20260506014142 1 246 1.6 9.7 0.00 0.00 0.00 60 1011.8
20260506013142 1 246 1.6 9.7 0.00 0.00 0.00 60 1011.8
20260506012141 1 319 1.6 12.9 0.00 0.00 0.00 60 1011.5
20260506011141 2 306 1.6 14.5 0.00 0.00 0.00 59 1011.3
20260506010142 2 306 1.6 14.5 0.00 0.00 0.00 59 1011.3
20260506005142 2 16 3.2 8.0 0.00 0.00 0.00 58 1011.3
20260506004140 2 16 3.2 8.0 0.00 0.00 0.00 58 1011.3
20260506003141 2 322 1.6 14.5 0.00 0.00 0.00 56 1011.2
20260506002141 2 322 1.6 14.5 0.00 0.00 0.00 56 1011.2
20260506001141 2 287 8.0 14.5 0.00 0.00 0.00 54 1010.8
20260506000142 2 287 8.0 14.5 0.00 0.00 0.00 54 1010.8
20260505235142 2 274 3.2 12.9 0.00 0.00 0.00 55 1010.8
20260505234142 2 274 3.2 12.9 0.00 0.00 0.00 55 1010.8